Kuiper-00035

operational
NORAD ID: 63748 Int'l Des: 2025-088 Owner: KUIP Country: US Constellation: kuiper
LEOCIRCULAR

关于 Kuiper-00035

正在加载描述...

实时位置

正在加载3D地球...

即将过境

高度历史

Altitude vs Time

uPlot chart will show altitude changes over time

两行轨道根数

1 63748U 25088AA 25354.49490056 .00002248 00000-0 32396-3 0 9999
2 63748 51.9015 104.3126 0006913 166.9630 193.1512 14.79929566 35781
Epoch: Dec 20, 2025 • Age: 19 hours

当前状态

高度 625.1 km
速度 7.55 km/s
星下点 3.09°N, 90.93°E
发射日期 Apr 28, 2025
运行时间 0.6 years
类型 internet

技术详情

分类 Payload
质量 490.00 kg
干质量 490.00 kg
总质量 490.00 kg
长度 1.80 m
直径 0.70 m
跨度 5.00 m
形状 Box + 2 pan
制造商 KUIP
平台类型 Kuiper
阶段状态 In Orbit
所有者/国家 KUIP/US

大型星座

Loading constellations...